Hourly Data Report for April 22, 2017

All times are specified in Local Standard Time (LST). Add 1 hour to adjust for Daylight Saving Time where and when it is observed.

CHATHAM KENT
ONTARIO

42°18'21.000" N
82°04'57.000" W
196.60 m
6131414
YCK

Related Data

No related data is available for this station

Download Data

Hourly Data (April 2017)
Hourly Data Report for April 22, 2017
Temp Definition
°C
Dew Point Temp Definition
°C
Rel Hum Definition
%
Wind Dir Definition
10's deg

Wind Spd Definition
km/h
Visibility Definition
km
Stn Press Definition
kPa
Hmdx Definition


Wind Chill Definition


Weather Definition


TIME
00:00 Legend Double Dagger 5.3 3.5 88 35 8 16.1 99.53     LegendNANA
01:00 Legend Double Dagger 5.5 3.7 88 32 8 16.1 99.48     LegendNANA
02:00 Legend Double Dagger 4.5 3.5 93 32 9 16.1 99.46     LegendNANA
03:00 Legend Double Dagger 4.2 3.0 92 32 13 16.1 99.48     LegendNANA
04:00 Legend Double Dagger 3.3 2.4 94 34 13 16.1 99.47     LegendNANA
05:00 Legend Double Dagger 3.4 2.2 92 36 15 16.1 99.45     LegendNANA
06:00 Legend Double Dagger 2.8 2.1 95 36 11 16.1 99.49     LegendNANA
07:00 Legend Double Dagger 5.2 2.9 85 35 13 16.1 99.64     LegendNANA
08:00 Legend Double Dagger 6.4 2.6 77 3 18 16.1 99.61     LegendNANA
09:00 Legend Double Dagger 7.3 2.1 70 1 24 16.1 99.68     LegendNANA
10:00 Legend Double Dagger 8.1 1.7 64 1 28 16.1 99.59     LegendNANA
11:00 Legend Double Dagger 9.8 3.1 63 2 24 16.1 99.63     LegendNANA
12:00 Legend Double Dagger 10.8 2.4 56 36 30 16.1 99.63     LegendNANA
13:00 Legend Double Dagger 11.7 2.2 52 3 30 16.1 99.61     LegendNANA
14:00 Legend Double Dagger 12.0 2.1 51 2 22 16.1 99.64     LegendNANA
15:00 Legend Double Dagger 12.3 2.7 52 1 30 16.1 99.62     LegendNANA
16:00 Legend Double Dagger 11.5 1.5 50 2 26 16.1 99.57     LegendNANA
17:00 Legend Double Dagger 11.5 -0.2 44 1 22 16.1 99.56     LegendNANA
18:00 Legend Double Dagger 11.1 -0.8 43 2 21 16.1 99.57     LegendNANA
19:00 Legend Double Dagger 9.4 -1.3 47 1 18 16.1 99.60     LegendNANA
20:00 Legend Double Dagger 6.7 -0.8 59 1 11 16.1 99.63     LegendNANA
21:00 Legend Double Dagger 5.4 -1.7 60 36 11 16.1 99.64     LegendNANA
22:00 Legend Double Dagger 4.5 -1.8 64 36 13 16.1 99.68     LegendNANA
23:00 Legend Double Dagger 3.1 -1.7 71 2 9 16.1 99.68     LegendNANA

Notes on Data Quality.

Legend

  • E = Estimated
  • M = Missing
  • NA = Not Available
  • ‡ = Partner data that is not subject to review by the National Climate Archives
Date modified: